This is the latest recevied weather packets stored in our database for station/object KE5AKC. If no packets are shown the sender has not sent any weather packets the latest 10 day(s).
| Time | Temp. | Humidity | Pressure | Rain* | Wind** | Luminosity | Snow |
|---|---|---|---|---|---|---|---|
| 1777673066 | 15.56° C | 97% | 1011.3 hPa | 0.25 mm | - | 299 W/m² | - |
| 1777672761 | 15.56° C | 96% | 1011.3 hPa | 5.08 mm | - | 282 W/m² | - |
| 1777672459 | 15.56° C | 96% | 1011.7 hPa | 4.57 mm | - | 115 W/m² | - |
| 1777672154 | 15.56° C | 97% | 1011.7 hPa | 4.06 mm | - | 66 W/m² | - |
| 1777671849 | 15.56° C | 96% | 1011.7 hPa | 3.56 mm | - | 38 W/m² | - |
| 1777671545 | 15.56° C | 97% | 1011.3 hPa | 2.79 mm | - | 14 W/m² | - |
| 1777671242 | 15.56° C | 97% | 1011 hPa | 2.54 mm | - | 18 W/m² | - |
| 1777670937 | 15.56° C | 97% | 1010.7 hPa | 2.29 mm | - | 23 W/m² | - |
| 1777670635 | 15.56° C | 96% | 1010.7 hPa | 2.03 mm | - | 15 W/m² | - |
| 1777670331 | 15.56° C | 97% | 1010.3 hPa | 1.52 mm | - | 13 W/m² | - |
| 1777670029 | 15.56° C | 97% | 1010 hPa | 1.02 mm | - | 17 W/m² | - |
| 1777669726 | 15.56° C | 97% | 1009.3 hPa | 0.51 mm | - | 14 W/m² | - |
| 1777669423 | 16.11° C | 96% | 1010 hPa | 0 mm | - | 21 W/m² | - |
| 1777669119 | 16.11° C | 97% | 1010.7 hPa | 3.81 mm | - | 14 W/m² | - |
| 1777668817 | 16.11° C | 97% | 1010.7 hPa | 3.3 mm | - | 22 W/m² | - |
| 1777668513 | 16.11° C | 97% | 1010.7 hPa | 2.54 mm | - | 17 W/m² | - |
| 1777668209 | 16.11° C | 97% | 1011 hPa | 2.03 mm | - | 13 W/m² | - |
| 1777667906 | 16.11° C | 97% | 1010.7 hPa | 1.78 mm | - | 21 W/m² | - |
| 1777667604 | 16.11° C | 97% | 1010 hPa | 1.52 mm | - | 34 W/m² | - |
| 1777667300 | 16.11° C | 97% | 1010 hPa | 1.27 mm | - | 29 W/m² | - |
| 1777666997 | 16.11° C | 97% | 1010 hPa | 1.02 mm | - | 25 W/m² | - |
| 1777666694 | 16.11° C | 97% | 1010 hPa | 0.76 mm | - | 28 W/m² | - |
| 1777666391 | 16.11° C | 97% | 1010 hPa | 0.76 mm | - | 20 W/m² | - |
| 1777666087 | 16.11° C | 97% | 1010 hPa | 0.51 mm | - | 27 W/m² | - |
| 1777665784 | 16.11° C | 97% | 1009.7 hPa | 0.25 mm | - | 28 W/m² | - |
* Rain latest hour (hover to see other rain measurements)
** Current wind speed in m/s (hover to see current wind gust speed)